Fort Meade, MD

7:34 PM EDT on July 24, 2017 (GMT -0400)
Tipton

Weather History for KFME - December, 2012

Change the Weather History Date:

Monday, December 24, 2012

  Actual Average (KBWI) Record (KBWI)
Temperature  
Mean Temperature 30 °F -  
Max Temperature 37 °F 44 °F 71 °F (2015)
Min Temperature 23 °F 25 °F 4 °F (1983)
Degree Days  
Heating Degree Days 35    
Moisture  
Dew Point 28 °F    
Average Humidity 91    
Maximum Humidity 100    
Minimum Humidity 65    
Precipitation  
Precipitation 0.00 in - - ()
Sea Level Pressure  
Sea Level Pressure 30.02 in    
Wind  
Wind Speed 1 mph (ESE)    
Max Wind Speed 7 mph    
Max Gust Speed -    
Visibility 7 miles    
Events      
Averages and records for this station are not official NWS values.
T = Trace of Precipitation, MM = Missing Value Source: NWS Daily Summary

Daily Weather History Graph

Daily Weather History Graph

Search for Another Location

Airport or City:

Trip Planner

Search our weather history database for the weather conditions in past years. The results will help you decide how hot, cold, wet, or windy it might be!

Date:

Astronomy

Dec. 24, 2012 Rise Set
Actual Time 7:24 AM EST 4:49 PM EST
Civil Twilight 6:54 AM EST 5:19 PM EST
Nautical Twilight 6:20 AM EST 5:53 PM EST
Astronomical Twilight 5:47 AM EST 6:25 PM EST
Moon 2:15 PM EST 4:01 AM EST
Length of Visible Light 10h 25m
Length of Day
9h 25m
Waxing Gibbous, 88% of the Moon is Illuminated
Dec 24
Waxing Gibbous
Dec 28
Full
Jan 4
Last Quarter
Jan 11
New
Jan 18
First Quarter

Hourly Weather History & Observations

Time (EST) Temp. Windchill Dew Point Humidity Pressure Visibility Wind Dir Wind Speed Gust Speed Precip Events Conditions
12:03 AM 26.6 °F - 23.0 °F 86% 30.01 in 10.0 mi Calm Calm - N/A   Clear
12:24 AM 26.6 °F - 23.0 °F 86% 30.01 in 10.0 mi Calm Calm - N/A   Clear
12:45 AM 26.6 °F - 23.0 °F 86% 30.01 in 10.0 mi Calm Calm - N/A   Clear
1:06 AM 26.6 °F - 23.0 °F 86% 30.02 in 10.0 mi Calm Calm - N/A   Clear
1:30 AM 26.6 °F - 23.0 °F 86% 30.02 in 10.0 mi Calm Calm - N/A   Clear
1:51 AM 26.6 °F - 23.0 °F 86% 30.02 in 10.0 mi Calm Calm - N/A   Clear
2:12 AM 26.6 °F - 23.0 °F 86% 30.03 in 10.0 mi Calm Calm - N/A   Clear
2:33 AM 24.8 °F - 23.0 °F 93% 30.03 in 10.0 mi Calm Calm - N/A   Clear
2:51 AM 26.6 °F - 23.0 °F 86% 30.03 in 10.0 mi Calm Calm - N/A   Clear
3:15 AM 26.6 °F - 23.0 °F 86% 30.03 in 10.0 mi Calm Calm - N/A   Clear
3:36 AM 24.8 °F - 23.0 °F 93% 30.03 in 10.0 mi Calm Calm - N/A   Clear
3:57 AM 24.8 °F - 23.0 °F 93% 30.04 in 10.0 mi Calm Calm - N/A   Clear
4:18 AM 24.8 °F - 23.0 °F 93% 30.05 in 10.0 mi Calm Calm - N/A   Clear
4:39 AM 24.8 °F - 23.0 °F 93% 30.05 in 10.0 mi Calm Calm - N/A   Clear
5:03 AM 24.8 °F - 23.0 °F 93% 30.06 in 10.0 mi Calm Calm - N/A   Clear
5:24 AM 24.8 °F - 23.0 °F 93% 30.06 in 10.0 mi Calm Calm - N/A   Clear
5:45 AM 23.0 °F - 23.0 °F 100% 30.06 in 10.0 mi Calm Calm - N/A   Clear
6:06 AM 24.8 °F - 23.0 °F 93% 30.07 in 10.0 mi Calm Calm - N/A   Clear
6:27 AM 23.0 °F - 21.2 °F 93% 30.08 in 10.0 mi Calm Calm - N/A   Clear
6:48 AM 23.0 °F - 21.2 °F 93% 30.07 in 10.0 mi Calm Calm - N/A   Clear
7:09 AM 23.0 °F - 23.0 °F 100% 30.08 in 10.0 mi Calm Calm - N/A   Clear
7:30 AM 23.0 °F 18.4 °F 21.2 °F 93% 30.08 in 10.0 mi NNE 3.5 mph - N/A   Clear
7:51 AM 26.6 °F 21.2 °F 23.0 °F 86% 30.08 in 10.0 mi South 4.6 mph - N/A   Clear
8:12 AM 26.6 °F 21.2 °F 26.6 °F 100% 30.09 in 10.0 mi South 4.6 mph - N/A   Clear
8:33 AM 28.4 °F - 26.6 °F 93% 30.09 in 10.0 mi Calm Calm - N/A   Clear
8:57 AM 30.2 °F - 28.4 °F 93% 30.09 in 10.0 mi Calm Calm - N/A   Clear
9:18 AM 32.0 °F - 28.4 °F 87% 30.09 in 10.0 mi Calm Calm - N/A   Clear
9:39 AM 33.8 °F - 30.2 °F 87% 30.10 in 10.0 mi Calm Calm - N/A   Clear
10:00 AM 35.6 °F - 28.4 °F 75% 30.11 in 10.0 mi Calm Calm - N/A   Clear
10:21 AM 35.6 °F 31.7 °F 28.4 °F 75% 30.12 in 10.0 mi East 4.6 mph - N/A   Clear
11:03 AM 37.4 °F 34.9 °F 28.4 °F 70% 30.11 in 10.0 mi South 3.5 mph - N/A   Clear
11:45 AM 37.4 °F 32.8 °F 26.6 °F 65% 30.09 in 10.0 mi SE 5.8 mph - N/A   Mostly Cloudy
12:06 PM 37.4 °F 33.8 °F 26.6 °F 65% 30.08 in 10.0 mi South 4.6 mph - N/A   Overcast
12:27 PM 37.4 °F - 26.6 °F 65% 30.08 in 10.0 mi Calm Calm - N/A   Overcast
12:48 PM 37.4 °F 33.8 °F 26.6 °F 65% 30.06 in 10.0 mi ESE 4.6 mph - N/A   Overcast
1:12 PM 37.4 °F 32.8 °F 28.4 °F 70% 30.05 in 10.0 mi SSE 5.8 mph - N/A   Overcast
1:33 PM 35.6 °F 31.7 °F 30.2 °F 81% 30.04 in 10.0 mi SE 4.6 mph - N/A   Overcast
1:54 PM 35.6 °F 29.9 °F 32.0 °F 87% 30.03 in 7.0 mi ESE 6.9 mph - N/A   Overcast
2:15 PM 33.8 °F 29.6 °F 32.0 °F 93% 30.03 in 5.0 mi East 4.6 mph - N/A   Overcast
2:57 PM 32.0 °F - 32.0 °F 100% 30.01 in 1.8 mi Calm Calm - N/A   Overcast
3:18 PM 32.0 °F 28.7 °F 32.0 °F 100% 30.00 in 1.8 mi ENE 3.5 mph - N/A   Mostly Cloudy
3:39 PM 32.0 °F 27.5 °F 32.0 °F 100% 29.98 in 2.0 mi NE 4.6 mph - N/A   Unknown
4:00 PM 33.8 °F 28.6 °F 32.0 °F 93% 29.97 in 2.5 mi ENE 5.8 mph - N/A   Overcast
4:21 PM 33.8 °F 28.6 °F 32.0 °F 93% 29.97 in 2.0 mi ENE 5.8 mph - N/A   Overcast
4:42 PM 33.8 °F 27.7 °F 32.0 °F 93% 29.96 in 3.0 mi East 6.9 mph - N/A   Overcast
5:06 PM 33.8 °F 29.6 °F 32.0 °F 93% 29.97 in 2.0 mi SE 4.6 mph - N/A   Overcast
5:27 PM 33.8 °F 28.6 °F 32.0 °F 93% 29.97 in 2.0 mi East 5.8 mph - N/A   Overcast
5:48 PM 33.8 °F - 32.0 °F 93% 29.96 in 3.0 mi Calm Calm - N/A   Overcast
6:09 PM 33.8 °F 29.6 °F 33.8 °F 100% 29.96 in 2.5 mi ENE 4.6 mph - N/A   Overcast
6:30 PM 33.8 °F - 33.8 °F 100% 29.96 in 4.0 mi Calm Calm - N/A   Scattered Clouds
6:51 PM 33.8 °F - 33.8 °F 100% 29.96 in 4.0 mi Calm Calm - N/A   Scattered Clouds
7:12 PM 33.8 °F 30.8 °F 33.8 °F 100% 29.96 in 4.0 mi NE 3.5 mph - N/A   Overcast
7:33 PM 33.8 °F - 33.8 °F 100% 29.95 in 4.0 mi Calm Calm - N/A   Overcast
7:54 PM 33.8 °F 30.8 °F 33.8 °F 100% 29.95 in 2.5 mi North 3.5 mph - N/A   Overcast
8:15 PM 33.8 °F - 33.8 °F 100% 29.95 in 2.0 mi Calm Calm - N/A   Overcast
8:36 PM 33.8 °F - 33.8 °F 100% 29.93 in 2.0 mi Calm Calm - N/A   Overcast
9:00 PM 33.8 °F - 33.8 °F 100% 29.93 in 2.0 mi Calm Calm - N/A   Overcast
9:21 PM 33.8 °F - 33.8 °F 100% 29.94 in 2.0 mi Calm Calm - N/A   Overcast
9:42 PM 33.8 °F - 33.8 °F 100% 29.93 in 1.8 mi Calm Calm - N/A   Overcast
10:03 PM 33.8 °F - 33.8 °F 100% 29.93 in 1.5 mi Calm Calm - N/A   Overcast
10:24 PM 33.8 °F - 33.8 °F 100% 29.93 in 1.2 mi Calm Calm - N/A   Overcast
10:45 PM 33.8 °F - 33.8 °F 100% 29.93 in 1.2 mi Calm Calm - N/A   Overcast
11:06 PM 33.8 °F - 33.8 °F 100% 29.93 in 1.2 mi Calm Calm - N/A   Overcast
11:48 PM 33.8 °F - 33.8 °F 100% 29.93 in 1.0 mi Calm Calm - N/A   Overcast